Islip, NY

8:20 AM EDT on June 21, 2018 (GMT -0400)
Long Island Mac Arthur

Weather History for KISP - October, 2017

Change the Weather History Date:

Thursday, October 12, 2017

  Actual Average Record
Temperature  
Mean Temperature 59 °F 55 °F  
Max Temperature 65 °F 64 °F 80 °F (1995)
Min Temperature 52 °F 47 °F 28 °F (1964)
Degree Days  
Heating Degree Days 6 10  
Month to date heating degree days 28 98  
Since 1 July heating degree days 53 175  
Cooling Degree Days 0 0  
Month to date cooling degree days 43 9  
Year to date cooling degree days 961 786  
Growing Degree Days 8 (Base 50)    
Moisture  
Dew Point 49 °F    
Average Humidity 71    
Maximum Humidity 93    
Minimum Humidity 48    
Precipitation  
Precipitation 0.02 in 0.12 in 3.30 in (2005)
Month to date precipitation 0.59 1.49  
Year to date precipitation 32.93 36.21  
Snow  
Snow 0.00 in 0.00 in - ()
Month to date snowfall 0.0 0.0  
Since 1 July snowfall 0.0 0.0  
Snow Depth 0.00 in    
Sea Level Pressure  
Sea Level Pressure 30.33 in    
Wind  
Wind Speed 11 mph (ENE)    
Max Wind Speed 21 mph    
Max Gust Speed 29 mph    
Visibility 10 miles    
Events Rain    
T = Trace of Precipitation, MM = Missing Value Source: NWS Daily Summary

Daily Weather History Graph

Daily Weather History Graph

Search for Another Location

Airport or City:

Astronomy

Oct. 12, 2017 Rise Set
Actual Time 7:00 AM EDT 6:16 PM EDT
Civil Twilight 6:33 AM EDT 6:43 PM EDT
Nautical Twilight 6:01 AM EDT 7:15 PM EDT
Astronomical Twilight 5:29 AM EDT 7:47 PM EDT
Moon No Moon Rise 2:10 PM EDT (10/12)
Length of Visible Light 12h 10m
Length of Day
11h 15m
Waning Gibbous, 49% of the Moon is Illuminated
Oct 12
Waning Gibbous
Oct 19
New
Oct 27
First Quarter
Nov 4
Full
Nov 10
Last Quarter

Hourly Weather History & Observations

Time (EDT) Temp. Dew Point Humidity Pressure Visibility Wind Dir Wind Speed Gust Speed Precip Events Conditions
12:56 AM 62.1 °F 53.1 °F 72% 30.21 in 10.0 mi ENE 10.4 mph - N/A   Overcast
1:56 AM 61.0 °F 54.0 °F 78% 30.23 in 10.0 mi ENE 10.4 mph - 0.00 in Rain Light Rain
2:56 AM 59.0 °F 55.9 °F 90% 30.22 in 10.0 mi ENE 11.5 mph - 0.01 in Rain Light Rain
3:56 AM 57.9 °F 54.0 °F 87% 30.22 in 10.0 mi East 10.4 mph 21.9 mph 0.00 in Rain Light Rain
4:56 AM 57.9 °F 55.9 °F 93% 30.26 in 10.0 mi NE 10.4 mph - 0.00 in Rain Light Rain
5:43 AM 57.0 °F 54.0 °F 89% 30.26 in 10.0 mi ENE 11.5 mph - 0.01 in   Overcast
5:56 AM 57.0 °F 54.0 °F 89% 30.27 in 10.0 mi ENE 13.8 mph 20.7 mph 0.01 in Rain Light Rain
6:56 AM 57.0 °F 53.1 °F 87% 30.28 in 10.0 mi ENE 13.8 mph 18.4 mph 0.00 in Rain Light Rain
7:29 AM 57.0 °F 51.1 °F 81% 30.29 in 10.0 mi ENE 11.5 mph 21.9 mph 0.00 in   Mostly Cloudy
7:56 AM 57.0 °F 51.1 °F 81% 30.31 in 10.0 mi ENE 11.5 mph - 0.00 in Rain Light Rain
8:56 AM 57.9 °F 52.0 °F 81% 30.33 in 10.0 mi NE 12.7 mph - 0.00 in   Overcast
9:56 AM 59.0 °F 50.0 °F 72% 30.35 in 10.0 mi ENE 16.1 mph 24.2 mph 0.00 in Rain Light Rain
10:37 AM 60.1 °F 48.9 °F 67% 30.35 in 10.0 mi NE 16.1 mph 29.9 mph 0.00 in   Overcast
10:56 AM 61.0 °F 50.0 °F 67% 30.36 in 10.0 mi ENE 11.5 mph 24.2 mph 0.00 in   Overcast
11:56 AM 61.0 °F 50.0 °F 67% 30.37 in 10.0 mi ENE 12.7 mph 21.9 mph N/A   Overcast
12:56 PM 61.0 °F 48.0 °F 62% 30.36 in 10.0 mi ENE 15.0 mph 24.2 mph N/A   Mostly Cloudy
1:26 PM 63.0 °F 46.0 °F 54% 30.35 in 10.0 mi ENE 15.0 mph - N/A   Mostly Cloudy
1:56 PM 64.0 °F 46.0 °F 52% 30.35 in 10.0 mi NE 17.3 mph 24.2 mph N/A   Scattered Clouds
2:56 PM 64.0 °F 46.0 °F 52% 30.34 in 10.0 mi NE 11.5 mph 21.9 mph N/A   Partly Cloudy
3:56 PM 64.0 °F 44.1 °F 48% 30.33 in 10.0 mi NE 15.0 mph 21.9 mph N/A   Partly Cloudy
4:56 PM 62.1 °F 45.0 °F 53% 30.34 in 10.0 mi East 12.7 mph 21.9 mph N/A   Partly Cloudy
5:56 PM 60.1 °F 45.0 °F 57% 30.35 in 10.0 mi East 9.2 mph - N/A   Partly Cloudy
6:56 PM 57.0 °F 45.0 °F 64% 30.37 in 10.0 mi East 8.1 mph - N/A   Partly Cloudy
7:56 PM 55.9 °F 46.0 °F 69% 30.38 in 10.0 mi East 9.2 mph - N/A   Partly Cloudy
8:56 PM 54.0 °F 46.0 °F 75% 30.40 in 10.0 mi ENE 8.1 mph - N/A   Partly Cloudy
9:56 PM 54.0 °F 45.0 °F 72% 30.40 in 10.0 mi ENE 8.1 mph - N/A   Partly Cloudy
10:56 PM 53.1 °F 45.0 °F 74% 30.41 in 10.0 mi ENE 8.1 mph - N/A   Partly Cloudy
11:56 PM 52.0 °F 46.0 °F 80% 30.41 in 10.0 mi NE 6.9 mph - N/A   Partly Cloudy